This is the latest recevied weather packets stored in our database for station/object VA3JLF-1. If no packets are shown the sender has not sent any weather packets the latest 10 day(s).
| Time | Temp. | Humidity | Pressure | Rain* | Wind** | Luminosity | Snow |
|---|---|---|---|---|---|---|---|
| 1778108347 | 7.22° C | 91% | 1007 hPa | 0 mm | - | - | - |
| 1778107748 | 7.22° C | 92% | 1007.3 hPa | 0 mm | - | - | - |
| 1778107147 | 7.22° C | 91% | 1006.9 hPa | 0 mm | - | - | - |
| 1778106547 | 7.22° C | 91% | 1006.9 hPa | 0 mm | - | - | - |
| 1778105948 | 7.22° C | 90% | 1006.7 hPa | 0 mm | - | - | - |
| 1778105347 | 7.78° C | 90% | 1006.6 hPa | 0 mm | - | - | - |
| 1778104747 | 7.78° C | 90% | 1006.6 hPa | 0 mm | - | - | - |
| 1778104147 | 8.33° C | 91% | 1006.7 hPa | 0 mm | - | - | - |
| 1778103548 | 7.78° C | 90% | 1006.8 hPa | 0 mm | - | - | - |
| 1778102947 | 8.33° C | 89% | 1006.8 hPa | 0 mm | - | - | - |
| 1778102348 | 8.89° C | 88% | 1006.7 hPa | 0 mm | - | - | - |
| 1778101749 | 8.33° C | 89% | 1006.6 hPa | 0 mm | - | - | - |
| 1778101148 | 8.33° C | 89% | 1006.7 hPa | 0 mm | - | - | - |
| 1778100547 | 8.33° C | 88% | 1006.2 hPa | 0 mm | - | - | - |
| 1778099947 | 8.89° C | 87% | 1006.4 hPa | 0 mm | - | - | - |
| 1778099347 | 8.89° C | 88% | 1006.2 hPa | 0 mm | - | - | - |
| 1778098747 | 8.89° C | 88% | 1006.1 hPa | 0 mm | - | - | - |
| 1778098148 | 8.89° C | 87% | 1006.1 hPa | 0 mm | - | - | - |
| 1778097549 | 10° C | 85% | 1006.4 hPa | 0 mm | - | - | - |
| 1778096948 | 9.44° C | 87% | 1006.4 hPa | 0 mm | - | - | - |
| 1778096347 | 9.44° C | 84% | 1006.4 hPa | 0 mm | - | - | - |
| 1778095747 | 9.44° C | 84% | 1006.6 hPa | 0 mm | - | - | - |
| 1778095148 | 9.44° C | 84% | 1006.2 hPa | 0 mm | - | - | - |
| 1778094547 | 9.44° C | 85% | 1006.7 hPa | 0 mm | - | - | - |
| 1778093947 | 9.44° C | 84% | 1005.9 hPa | 0 mm | - | - | - |
* Rain latest hour (hover to see other rain measurements)
** Current wind speed in m/s (hover to see current wind gust speed)